This is the latest recevied weather packets stored in our database for station/object N4ASP-13. If no packets are shown the sender has not sent any weather packets the latest 1 day(s).
| Time | Temp. | Humidity | Pressure | Rain* | Wind** | Luminosity | Snow |
|---|---|---|---|---|---|---|---|
| 1778087398 | 16.11° C | 90% | 1014.3 hPa | 0.51 mm | - | 232 W/m² | - |
| 1778087096 | 16.11° C | 89% | 1014.6 hPa | 0.51 mm | - | 225 W/m² | - |
| 1778086910 | 16.67° C | 90% | 1014.4 hPa | 0.51 mm | - | 197 W/m² | - |
| 1778086665 | 16.67° C | 90% | 1014.4 hPa | 0.25 mm | - | 153 W/m² | - |
| 1778086545 | 16.67° C | 90% | 1014.4 hPa | 0.25 mm | - | 163 W/m² | - |
| 1778086425 | 16.67° C | 90% | 1014.4 hPa | 0.25 mm | - | 179 W/m² | - |
| 1778086359 | 16.11° C | 90% | 1014.4 hPa | 0.25 mm | - | 193 W/m² | - |
| 1778086298 | 16.11° C | 90% | 1014.3 hPa | 0.25 mm | - | 199 W/m² | - |
| 1778085929 | 16.11° C | 89% | 1014.3 hPa | 0.25 mm | - | 192 W/m² | - |
| 1778085809 | 16.11° C | 89% | 1014.4 hPa | 0.25 mm | - | 181 W/m² | - |
| 1778085629 | 16.11° C | 89% | 1014.5 hPa | 0.25 mm | - | 172 W/m² | - |
| 1778085266 | 16.11° C | 88% | 1014.6 hPa | 0 mm | - | 192 W/m² | - |
| 1778085024 | 16.11° C | 88% | 1014.6 hPa | 0 mm | - | 192 W/m² | - |
| 1778084844 | 16.11° C | 87% | 1014.6 hPa | 0 mm | - | 190 W/m² | - |
| 1778084665 | 16.11° C | 87% | 1014.8 hPa | 0 mm | - | 186 W/m² | - |
| 1778084365 | 16.67° C | 87% | 1015 hPa | 0 mm | - | 174 W/m² | - |
| 1778084301 | 16.67° C | 87% | 1015 hPa | 0 mm | - | 179 W/m² | - |
| 1778084179 | 16.11° C | 87% | 1014.8 hPa | 0 mm | - | 192 W/m² | - |
| 1778083933 | 16.11° C | 87% | 1014.8 hPa | 0 mm | - | 221 W/m² | - |
| 1778083752 | 16.11° C | 87% | 1014.8 hPa | 0 mm | - | 281 W/m² | - |
| 1778083513 | 16.11° C | 87% | 1014.6 hPa | 0 mm | - | 274 W/m² | - |
| 1778083390 | 16.11° C | 87% | 1014.6 hPa | 0 mm | - | 241 W/m² | - |
| 1778083151 | 16.11° C | 87% | 1014.7 hPa | 0 mm | - | 169 W/m² | - |
| 1778082969 | 15.56° C | 87% | 1014.5 hPa | 0 mm | - | 141 W/m² | - |
| 1778082729 | 15.56° C | 88% | 1014.4 hPa | 0 mm | - | 199 W/m² | - |
* Rain latest hour (hover to see other rain measurements)
** Current wind speed in m/s (hover to see current wind gust speed)